Location: Bednik
(45.3500°N, 16.3833°E)
Time: 16:14:50
(UTC+00:00)

SL-16 R/B - Pass Details

Date: 08 August 2020
Orbit: 843 x 845 km, 71.0° (Epoch: 25 September)

Event Time Altitude Azimuth Distance (km) Brightness Sun altitude
Rises 19:51:10 0° 341° (NNW) 3,415 6.5 -15.4°
Reaches altitude 10° 19:54:09 10° 355° (N) 2,477 5.3 -15.8°
Maximum altitude 19:58:38 23° 48° (NE) 1,718 3.8 -16.3°
Enters shadow 20:01:48 15° 90° (E) 2,130 3.9 -16.7°
